Content
SEND FEEDBACK

Daily
Averages
Monthly
Summary
United States of America

CHELSEA, MICHIGAN


Home > North America > United States > Michigan
Elevation: 900 feet     Latitude: 42 19N     Longitude: 084 01W

WEATHER
 
SELECT A DAY
Number of Records: 208,905;   Date Range: 1/1/95 - 12/19/14
 
SHARE

PRINT THIS DATA

[ ← Previous Day ]
WEATHER ALMANAC - OCTOBER 25, 2013
[ Next Day → ]
[ °C ]   °F
Weather ElementAverageHighLow
Temperature37.5 °F48.9 °F (2:53 pm)30 °F (1:53 am)
Dewpoint29.3 °F34 °F (9:53 am)26.1 °F (9:53 pm)
Humidity74.4 %93 % (4:17 am)44 % (2:53 pm)
Barometer30.26 in30.34 in (9:53 am)30.13 in (11:53 pm)
Wind Speed8.8 mph17.3 mph (2:53 pm)
Wind Gust19.6 mph (12:53 pm)
Weather ElementAverage
Visibility9.8 mi
Wind DirectionWSW (263.1 °)

Weather ElementTotal
Precipitation---
Heating Degree Days25.6 (Base 65)
Averaged from 26 records on October 25, 2013
WEATHER CONDITIONS BREAKOUT
WIND DIRECTION BREAKOUT
WEATHER BY HOUR - OCTOBER 25, 2013
[ °C ]   °F
Local TimeTemperatureDewpointHumidityBarometerVisibilityWind DirectionWind SpeedGust SpeedPrecipitationEventsConditions
1:53 AM30.0 °F28.0 °F92 %30.22 in10.0 miWest (280°)4.6 mphClear
2:53 AM30.9 °F28.0 °F89 %30.22 in10.0 miWest (280°)8.1 mphClear
3:53 AM30.9 °F28.9 °F92 %30.23 in10.0 miWest (280°)8.1 mphClear
4:17 AM30.2 °F28.4 °F93 %30.22 in9.0 miWest (270°)6.9 mphPartly Cloudy
4:53 AM30.9 °F28.9 °F92 %30.24 in9.0 miWest (270°)6.9 mphPartly Cloudy
5:34 AM30.2 °F28.4 °F93 %30.23 in9.0 miWest (280°)6.9 mphMostly Cloudy
5:53 AM33.1 °F30.9 °F92 %30.26 in9.0 miWest (280°)10.4 mphOvercast
6:53 AM34.0 °F30.9 °F89 %30.29 in10.0 miWNW (300°)10.4 mphOvercast
7:53 AM33.1 °F30.9 °F92 %30.30 in10.0 miWNW (290°)5.8 mphOvercast
8:46 AM33.8 °F32.0 °F93 %30.30 in9.0 miWNW (290°)5.8 mphOvercast
8:53 AM34.0 °F32.0 °F92 %30.32 in9.0 miWNW (290°)6.9 mphOvercast
9:53 AM37.9 °F34.0 °F86 %30.34 in10.0 miWNW (290°)8.1 mphMostly Cloudy
10:53 AM43.0 °F34.0 °F71 %30.34 in10.0 miWNW (290°)10.4 mphClear
11:53 AM45.0 °F32.0 °F60 %30.33 in10.0 miWest (270°)9.2 mphScattered Clouds
12:53 PM45.0 °F28.0 °F52 %30.32 in10.0 miWNW (290°)13.8 mph19.6 mphMostly Cloudy
1:53 PM46.0 °F28.0 °F50 %30.31 in10.0 miWNW (300°)11.5 mph19.6 mphOvercast
2:53 PM48.9 °F28.0 °F44 %30.28 in10.0 miWSW (250°)17.3 mphMostly Cloudy
3:53 PM45.0 °F30.0 °F56 %30.28 in10.0 miWest (260°)12.7 mphOvercast
4:53 PM46.0 °F28.9 °F51 %30.26 in10.0 miSW (230°)16.1 mphMostly Cloudy
5:53 PM44.1 °F28.9 °F55 %30.24 in10.0 miWSW (240°)8.1 mphMostly Cloudy
6:53 PM39.9 °F28.9 °F65 %30.23 in10.0 miSW (220°)8.1 mphClear
7:53 PM37.0 °F27.0 °F67 %30.22 in10.0 miSW (230°)5.8 mphPartly Cloudy
8:53 PM36.0 °F27.0 °F70 %30.20 in10.0 miSW (220°)5.8 mphClear
9:53 PM35.1 °F26.1 °F70 %30.17 in10.0 miSSW (200°)4.6 mphClear
10:53 PM36.0 °F26.1 °F67 %30.15 in10.0 miSSW (210°)6.9 mphClear
11:53 PM39.0 °F27.0 °F62 %30.13 in10.0 miSW (230°)10.4 mphMostly Cloudy
Hourly data recorded from KARB, located miles away from Chelsea, Michigan







STORIES FROM OUR PARTNERS